SCP
2 2 2 1 1 1 1 1 1 0 0 0 0 0 0 0 0 1 1 1 2 2 2 3 3 3 3 2 3 3 3 3 3 4 4 4 3 3 2 2 2 1 1
3 2 2 2 1 1 1 1 1 0 0 0 0 0 0 0 0 1 1 2 2 2 2 3 3 3 3 3 3 4 4 3 4 4 4 4 4 3 3 2 2 2 1
3 3 3 3 2 1 1 1 1 0 0 0 0 0 0 0 0 1 2 2 2 2 2 3 3 3 3 4 4 5 4 4 4 4 5 5 4 4 4 3 3 2 2
3 3 3 3 2 1 1 1 1 1 1 1 1 1 1 0 0 0 1 2 2 2 3 3 3 3 3 4 5 5 5 5 4 4 4 4 4 4 4 4 3 3 2
3 3 4 3 2 2 1 1 2 2 1 1 1 1 1 1 0 0 1 1 2 2 3 3 4 4 4 4 4 5 5 5 5 4 4 4 4 4 4 4 4 3 2
3 3 4 3 3 3 2 2 2 2 1 1 1 1 1 1 1 0 0 1 1 2 2 3 4 4 4 4 4 5 5 5 4 4 4 3 3 3 3 3 3 3 2
4 4 4 4 4 3 3 3 3 2 2 1 1 1 1 1 1 1 0 0 0 1 1 2 3 3 4 4 4 4 4 4 4 3 3 2 2 2 2 2 2 2 2
4 4 4 4 4 3 3 3 3 2 2 2 1 1 1 1 1 1 1 0 0 0 1 1 2 3 3 3 3 4 4 4 4 3 3 2 2 2 2 2 2 2 2
4 4 4 4 3 3 3 3 3 2 2 2 1 1 1 0 1 1 1 1 0 0 0 0 1 1 2 3 3 3 3 3 3 3 3 3 3 3 2 2 1 1 2
4 3 3 3 3 3 3 3 3 2 2 2 1 1 1 1 1 1 1 1 0 0 0 0 0 0 1 2 2 2 2 2 2 2 3 3 3 3 2 2 1 1 1
3 3 2 2 2 2 2 3 2 2 2 2 1 1 1 1 1 1 0 0 0 0 0 0 0 0 1 2 2 2 2 1 1 2 2 3 3 3 2 1 1 1 1
2 2 2 2 2 1 1 2 2 2 2 1 2 2 2 1 1 1 1 0 0 0 0 0 0 0 0 1 2 2 2 1 1 1 1 2 2 2 1 1 0 0 0
2 2 1 1 1 1 1 1 1 1 1 1 1 2 2 1 1 1 1 1 1 0 0 0 0 0 0 1 1 1 1 1 1 1 1 1 1 1 1 0 0 0 0
1 1 1 1 1 1 1 2 1 1 1 1 1 1 1 1 1 1 1 1 1 0 0 0 0 0 0 0 1 1 1 0 0 1 1 0 0 0 0 0 0 0 0
1 1 1 1 1 2 2 2 2 1 1 1 1 1 1 1 1 1 1 1 1 1 0 0 0 0 0 0 0 0 0 0 0 0 0 0 0 0 0 0 0 0 0
1 1 1 1 2 2 2 1 1 1 1 1 1 1 1 1 1 1 1 1 1 0 0 0 0 0 0 0 0 0 0 0 0 0 0 0 0 0 0 0 0 0 0
1 1 1 1 1 1 1 1 1 1 1 1 1 1 1 1 1 1 1 1 1 1 0 0 0 0 0 0 0 0 0 1 0 0 0 0 0 0 0 0 0 0 0
1 1 1 1 1 1 1 1 1 1 1 1 0 0 0 0 1 1 1 1 1 1 0 0 0 0 0 0 0 0 1 1 1 1 0 0 0 0 0 0 0 0 0
0 1 1 0 0 0 0 1 1 1 1 1 0 0 0 0 1 1 1 1 1 1 1 1 0 0 0 0 0 0 1 1 1 1 1 0 0 0 0 0 0 0 0
0 0 0 0 0 0 0 0 1 1 1 1 1 0 0 1 1 1 1 1 1 1 1 1 0 0 0 0 0 0 0 1 1 1 0 0 0 0 0 0 0 0 0
0 0 0 0 0 0 0 0 0 1 1 1 1 1 1 1 1 1 1 1 1 1 1 1 0 0 0 0 0 0 0 0 0 0 0 0 0 0 0 0 0 0 0
0 0 0 0 0 0 0 0 0 0 1 1 1 1 1 1 1 1 1 1 1 1 1 1 1 0 1 1 0 0 0 0 0 0 0 0 0 0 0 0 0 0 0
0 0 0 0 0 0 0 0 0 0 0 1 1 1 1 1 1 1 1 1 1 1 1 1 1 1 1 1 1 1 0 0 0 0 0 0 0 0 0 0 0 0 0
0 0 0 0 0 0 0 0 0 0 1 1 1 1 1 1 1 1 1 1 1 1 1 0 1 1 1 0 0 0 0 0 0 0 0 0 0 0 0 0 0 0 0
0 0 0 0 0 0 0 0 0 0 1 1 1 1 1 1 1 1 1 1 1 1 1 0 0 0 0 0 0 0 0 0 0 0 0 0 0 0 0 0 0 0 0
0 0 0 0 0 0 0 0 0 0 1 1 1 1 0 0 0 0 1 1 1 1 1 1 0 0 0 0 0 0 0 0 0 0 0 0 0 0 0 0 0 0 0
Wind_Speed
4 4 5 6 6 5 4 4 5 4 1 3 2 4 4 3 4 5 4 5 4 3 1 1 2 2 1 1 1 2 4 4 5 6 7 7 6 5 5 4 3 2 2
3 3 3 5 4 4 5 4 3 3 2 2 2 3 3 3 3 5 5 5 4 3 2 2 3 3 2 2 2 2 4 5 6 7 7 6 6 5 5 4 4 3 2
4 4 3 4 3 3 4 3 1 2 3 3 2 0 2 2 3 2 5 5 4 4 3 4 3 3 3 3 2 3 4 4 5 6 6 6 5 4 4 4 4 3 2
5 4 2 3 3 3 2 2 1 1 2 1 2 2 2 3 3 0 2 5 5 5 4 5 4 4 4 4 4 5 5 4 4 4 4 4 4 4 4 3 4 3 3
5 4 3 2 3 2 2 3 1 1 1 1 1 1 1 2 2 2 3 5 5 6 5 5 6 5 5 5 5 6 6 6 5 5 5 5 4 3 3 3 4 4 3
4 4 3 2 1 2 1 1 2 1 2 1 2 1 2 2 2 2 2 1 2 6 7 7 4 4 6 6 6 6 6 6 5 5 5 5 4 3 3 4 4 4 3
3 5 3 2 1 2 2 1 1 1 1 1 2 3 2 3 3 3 2 2 2 5 6 7 5 5 4 6 6 6 6 5 5 5 5 5 4 3 3 3 3 3 2
3 4 4 3 2 2 1 1 1 1 1 1 1 1 2 3 3 2 3 2 2 2 2 4 7 6 6 4 6 8 6 5 5 5 5 5 4 3 2 2 2 1 1
3 3 3 4 3 3 3 3 3 4 3 3 3 3 3 3 2 3 4 4 3 1 2 1 3 5 7 6 6 7 8 5 5 5 5 6 5 4 3 2 2 2 3
3 3 2 3 2 2 3 4 5 4 5 4 4 3 3 3 2 2 3 2 4 4 2 1 1 1 4 6 7 10 9 6 5 5 6 6 6 6 5 3 3 2 3
3 3 2 2 1 2 3 4 5 4 4 4 4 3 2 2 3 3 2 3 2 1 2 1 2 0 2 5 6 9 10 8 5 5 5 6 6 6 5 4 3 2 2
2 3 2 1 1 1 2 3 4 4 3 4 3 3 3 2 2 2 3 3 3 2 2 2 2 1 1 4 7 14 12 9 7 5 4 5 5 6 5 4 3 2 2
2 2 2 1 0 1 2 2 2 2 3 4 4 2 2 2 1 2 2 3 3 2 2 2 3 3 3 3 5 13 11 11 9 7 6 5 5 5 5 4 4 3 2
1 2 2 2 2 2 2 1 1 3 2 3 4 3 2 2 2 2 3 2 2 2 2 3 2 4 4 4 7 13 8 12 11 10 9 8 7 6 6 5 5 4 3
1 1 2 3 3 4 3 3 2 3 2 1 0 1 1 2 2 2 2 3 3 3 4 4 3 3 3 3 7 7 6 12 14 13 12 10 9 8 8 7 6 5 4
1 2 4 6 6 6 5 3 1 1 1 1 1 1 2 2 2 2 3 3 3 4 3 3 3 2 2 2 6 5 6 13 16 15 14 13 12 11 10 8 7 7 6
3 4 6 6 6 6 6 5 3 2 2 3 4 5 5 4 3 3 3 3 3 3 4 3 2 2 2 2 2 4 3 4 7 15 16 15 14 13 12 11 10 9 9
4 5 5 5 5 4 4 6 5 4 3 4 4 2 3 3 3 2 2 3 3 4 4 4 3 2 3 2 2 4 4 4 5 13 17 16 15 14 13 13 12 11 10
5 5 5 5 4 3 3 3 4 5 5 6 5 3 2 1 2 2 3 3 3 3 3 3 3 2 2 2 2 3 4 3 3 5 13 15 15 14 14 14 14 13 12
5 5 4 3 2 1 2 2 2 3 3 4 4 5 4 2 2 1 1 1 2 2 2 2 2 1 2 2 2 2 3 3 3 2 5 8 11 15 15 15 15 15 14
6 6 7 7 7 7 8 8 6 5 4 4 3 3 3 5 7 4 2 2 1 0 1 1 1 1 1 1 2 2 2 2 2 2 2 3 5 5 8 13 16 16 15
7 8 8 8 9 9 12 12 9 6 6 5 3 2 3 6 7 6 4 3 1 1 1 0 1 1 1 1 1 1 1 0 2 1 1 2 1 3 4 4 9 14 16
7 8 8 8 7 9 15 14 13 7 6 5 5 3 1 3 7 6 6 6 4 3 1 0 0 0 1 1 1 1 1 1 1 1 1 2 2 2 2 2 4 5 10
6 6 7 6 6 9 15 15 16 7 5 5 5 3 1 1 1 1 3 4 4 5 5 2 1 2 3 3 2 1 1 0 1 0 1 1 2 2 2 3 4 3 1
5 5 5 6 6 7 14 16 15 6 4 4 3 3 3 4 4 4 2 1 2 2 4 6 6 6 5 4 3 2 1 1 1 1 1 0 2 2 2 1 2 4 3
4 3 3 4 5 5 9 15 15 6 6 6 4 4 8 7 6 6 4 2 2 1 3 3 2 2 2 3 1 0 1 1 1 1 0 0 1 2 2 2 1 2 2
Wind_Direction
197 176 169 166 184 185 175 231 234 192 127 66 33 36 59 85 103 107 126 136 136 130 138 204 184 169 163 191 228 203 181 177 176 172 167 165 162 159 156 154 149 134 103
190 157 175 156 190 167 168 222 235 125 130 92 48 49 19 35 88 129 137 145 147 140 135 138 157 163 171 191 206 199 181 180 181 179 179 181 180 181 179 178 176 168 143
174 163 188 155 193 176 176 215 183 122 124 124 153 146 94 44 331 117 138 152 150 133 126 122 128 136 140 141 146 162 166 176 184 187 191 194 195 197 193 186 185 184 175
177 169 169 154 177 165 160 119 45 99 125 166 177 185 166 153 251 52 191 155 150 142 123 114 116 120 122 119 119 128 137 150 165 176 177 177 184 188 192 192 195 196 199
174 146 131 124 152 132 139 149 180 166 133 147 139 147 277 188 192 249 253 149 146 146 137 131 126 124 125 124 122 122 125 129 131 133 134 136 148 172 195 205 210 215 222
141 119 120 121 112 113 99 102 131 96 54 28 303 247 223 248 228 244 325 64 171 153 147 150 147 135 132 131 127 128 131 132 135 138 139 142 155 183 207 214 220 221 226
121 120 128 143 120 126 145 186 112 106 53 343 319 321 313 267 256 200 199 271 254 138 159 165 164 154 145 134 130 133 138 139 142 143 144 145 153 177 199 212 217 223 234
153 147 156 153 143 131 164 218 150 151 208 236 214 235 315 320 302 262 192 193 284 165 208 177 167 163 161 150 142 130 123 132 142 145 145 146 147 156 176 198 205 198 164
161 148 151 155 175 174 190 214 212 197 207 231 227 183 185 228 274 297 233 192 218 220 213 251 183 172 152 142 143 129 126 125 134 144 144 140 138 142 147 155 151 127 113
132 137 139 144 164 180 197 216 219 211 205 222 241 228 211 189 174 288 313 247 202 197 205 232 46 57 130 133 146 147 138 133 140 150 151 146 141 134 128 132 139 131 125
88 102 101 115 146 185 213 221 227 211 201 210 227 229 238 243 217 192 255 297 294 191 182 207 162 218 140 142 148 157 152 148 150 158 161 160 154 149 141 141 149 163 171
76 77 94 101 124 209 238 240 230 212 204 216 228 219 205 208 215 194 210 240 259 259 205 188 177 190 173 151 163 160 161 161 164 169 174 174 171 167 164 167 179 193 222
112 126 120 132 179 261 279 287 279 250 220 222 225 229 228 230 204 187 204 230 238 259 239 204 202 202 202 164 155 167 172 173 177 182 185 185 188 189 189 193 203 218 248
111 142 162 179 205 229 254 252 298 281 256 238 217 211 207 234 219 202 201 203 229 253 245 239 217 206 206 187 178 180 183 184 186 192 194 196 199 203 207 211 217 225 246
90 160 213 213 219 218 224 232 206 256 239 284 346 268 217 227 234 229 219 199 191 216 240 234 229 219 203 190 174 186 184 193 194 198 199 201 205 210 214 217 219 221 232
255 219 225 223 219 207 203 209 219 274 344 231 174 267 264 237 232 225 222 222 205 203 236 235 216 211 194 169 171 199 207 197 201 201 202 204 206 210 215 218 220 220 225
235 230 233 231 221 202 190 181 196 225 241 260 222 213 222 220 215 220 224 228 224 207 225 251 223 202 172 200 177 242 237 193 200 206 207 208 208 211 216 220 223 223 225
272 257 254 249 244 203 184 172 187 201 219 252 271 262 237 201 199 220 216 224 229 221 214 237 235 214 212 216 203 238 245 216 204 209 211 212 213 214 216 220 224 225 226
294 279 270 260 244 200 184 186 189 201 215 220 223 230 250 208 194 210 212 223 230 233 216 222 241 220 222 221 222 242 255 260 255 211 207 213 217 218 220 223 225 227 227
326 332 332 330 336 42 35 348 300 249 244 242 227 207 201 205 152 149 195 217 227 230 227 225 241 243 231 220 188 221 250 253 260 258 208 209 217 222 226 228 230 230 229
8 9 9 20 27 38 28 12 346 321 290 267 262 250 173 127 109 99 85 44 21 293 206 209 237 241 229 199 212 207 233 271 275 254 240 219 209 217 223 233 237 237 233
28 27 29 34 41 36 19 16 358 330 317 306 289 268 165 153 151 150 152 150 116 40 46 142 187 238 253 218 197 185 213 293 289 307 287 272 222 228 232 222 231 230 231
37 35 33 35 43 32 17 7 357 327 302 297 300 294 257 164 163 177 188 193 200 200 194 34 12 202 110 122 127 134 178 230 265 329 11 306 323 298 298 331 334 241 230
38 39 30 27 30 30 15 3 350 318 286 281 282 282 295 160 160 139 172 194 195 186 194 193 71 79 79 71 80 109 144 221 281 310 74 305 333 332 352 1 19 33 316
34 49 30 22 21 23 15 7 358 329 330 324 323 12 40 63 57 46 26 48 117 132 134 113 101 102 98 84 67 55 52 31 320 303 76 343 336 331 331 341 1 18 9
29 56 50 32 32 18 15 15 9 359 355 346 354 52 60 64 52 37 21 34 66 75 118 136 141 156 179 170 164 138 99 76 331 321 102 101 340 352 339 321 308 316 328